User: anonymous   Login
Location: Błażejewo
(52.2178°N, 17.0984°E)
Time: 04:58:36
(UTC+01:00)
Language:

ISS - Orbit

View from above orbital plane
View from above orbital plane
View from above satellite
View from above satellite

Ground track
Ground track

The orbit data is extracted from the following two-line orbital elements,

1 25544U 98067A   18323.44918568  .00016717  00000-0  10270-3 0  9054
2 25544  51.6413 325.0058 0005164  62.7428 297.4250 15.53976215 22658
Epoch (UTC): 19 November 2018 10:46:49
Eccentricity: 0.0005164
inclination: 51.6413°
perigee height: 401 km
apogee height: 408 km
right ascension of ascending node: 325.0058°
argument of perigee: 62.7428°
revolutions per day: 15.53976215
mean anomaly at epoch: 297.4250°
orbit number at epoch: 2265

The dashed part of the orbit path shows where the satellite is in the earth's shadow,  

DLR